EW4792 Weather Reports


Display with metric or nautical units.
time (UTC)temp
F
wind
direction
speed
MPH
gust
MPH
rain 1hr
in
rain 24hr
in
rain mn
in
humidity
%
barometer
mb
20260507132645 60 33 6.0 13.0 0.00 0.00 0.00 87 1018.6
20260507132154 60 358 6.0 13.0 0.00 0.00 0.00 87 1018.6
20260507131708 60 347 6.0 18.0 0.00 0.00 0.00 87 1018.7
20260507131201 60 353 10.0 18.0 0.00 0.00 0.00 87 1018.4
20260507130703 60 343 4.0 10.0 0.00 0.00 0.00 87 1018.6
20260507130156 60 351 7.0 19.0 0.00 0.00 0.00 87 1018.5
20260507125655 60 39 9.0 19.0 0.00 0.00 0.00 87 1018.7
20260507125150 60 338 8.0 13.0 0.00 0.00 0.00 87 1018.6
20260507124703 60 43 6.0 11.0 0.00 0.00 0.00 86 1018.4
20260507124159 60 79 6.0 11.0 0.00 0.00 0.00 87 1018.5
20260507123655 60 49 4.0 10.0 0.00 0.00 0.00 86 1018.3
20260507123151 60 48 4.0 11.0 0.00 0.00 0.00 87 1018.2
20260507122650 60 10 6.0 18.0 0.00 0.00 0.00 87 1018.1
20260507122146 60 24 9.0 19.0 0.00 0.00 0.00 86 1017.7
20260507121707 61 20 10.0 19.0 0.00 0.00 0.00 87 1017.6
20260507121124 61 350 6.0 12.0 0.00 0.00 0.00 87 1017.5
20260507120727 61 31 6.0 12.0 0.00 0.00 0.00 86 1017.6
20260507120201 61 10 6.0 15.0 0.00 0.00 0.00 86 1017.4
20260507115712 61 15 8.0 15.0 0.00 0.00 0.00 86 1017.4
20260507115154 61 326 8.0 14.0 0.00 0.00 0.00 86 1017.2
20260507114708 61 357 9.0 21.0 0.00 0.00 0.00 86 1017.1
20260507114204 61 5 9.0 21.0 0.00 0.00 0.00 86 1017.4
20260507113642 61 15 9.0 18.0 0.00 0.00 0.00 86 1017.4
20260507112711 61 1 9.0 15.0 0.00 0.00 0.00 85 1017.0
20260507112207 61 30 7.0 15.0 0.00 0.00 0.00 85 1016.9
20260507111642 61 5 9.0 15.0 0.00 0.00 0.00 85 1016.9
20260507111120 61 10 5.0 19.0 0.00 0.00 0.00 85 1016.9
20260507110636 61 351 8.0 19.0 0.00 0.00 0.00 85 1016.8
20260507110213 61 41 6.0 14.0 0.00 0.00 0.00 85 1016.8
20260507105649 62 1 8.0 14.0 0.00 0.00 0.00 84 1016.8
20260507105212 62 357 8.0 14.0 0.00 0.00 0.00 85 1016.8
20260507104130 62 28 5.0 11.0 0.00 0.00 0.00 84 1017.0
20260507103709 62 339 6.0 11.0 0.00 0.00 0.00 84 1016.9
20260507103143 62 27 5.0 12.0 0.00 0.00 0.00 84 1016.9
20260507102647 62 20 6.0 11.0 0.00 0.00 0.00 84 1016.9
20260507102149 62 45 5.0 11.0 0.00 0.00 0.00 84 1016.7
20260507101651 62 26 2.0 8.0 0.00 0.00 0.00 84 1016.8
20260507101133 62 10 5.0 12.0 0.00 0.00 0.00 84 1016.5
20260507100651 62 47 6.0 12.0 0.00 0.00 0.00 84 1016.6
20260507100148 62 342 5.0 9.0 0.00 0.00 0.00 84 1016.6
20260507095703 62 20 5.0 9.0 0.00 0.00 0.00 84 1016.7
20260507095202 62 15 5.0 9.0 0.00 0.00 0.00 84 1016.8
20260507094659 62 20 4.0 9.0 0.00 0.00 0.00 84 1016.3
20260507094157 62 27 2.0 9.0 0.00 0.00 0.00 84 1016.4
20260507093700 62 33 5.0 11.0 0.00 0.00 0.00 84 1016.6
20260507093221 62 30 6.0 11.0 0.00 0.00 0.00 84 1016.7
20260507092659 62 10 5.0 11.0 0.00 0.00 0.00 84 1016.6
20260507092158 62 33 6.0 11.0 0.00 0.00 0.00 84 1016.7
20260507091634 62 332 3.0 8.0 0.00 0.00 0.00 84 1016.6
20260507091135 62 42 4.0 10.0 0.00 0.00 0.00 84 1016.2
20260507090650 62 30 4.0 11.0 0.00 0.00 0.00 84 1016.6
20260507090200 62 359 4.0 11.0 0.00 0.00 0.00 84 1016.4
20260507085126 62 344 2.0 9.0 0.00 0.00 0.00 84 1016.4
20260507084641 62 20 4.0 9.0 0.00 0.00 0.00 84 1016.1
20260507084134 62 1 4.0 8.0 0.00 0.00 0.00 84 1016.5
20260507083629 63 15 5.0 8.0 0.00 0.00 0.00 84 1016.5
20260507083128 63 352 2.0 8.0 0.00 0.00 0.00 84 1016.4
20260507082626 63 26 5.0 8.0 0.00 0.00 0.00 84 1016.5
20260507082126 63 10 4.0 8.0 0.00 0.00 0.00 84 1016.4
20260507081622 63 5 4.0 8.0 0.00 0.00 0.00 84 1016.2
20260507081204 63 32 3.0 6.0 0.00 0.00 0.00 84 1016.3
20260507080701 63 41 4.0 6.0 0.00 0.00 0.00 84 1016.5
20260507080211 63 58 0.0 5.0 0.00 0.00 0.00 84 1016.4
20260507075710 63 64 2.0 6.0 0.00 0.00 0.00 84 1016.3
20260507075204 63 20 2.0 5.0 0.00 0.00 0.00 84 1016.4
20260507074701 63 34 1.0 7.0 0.00 0.00 0.00 84 1016.2
20260507074201 63 20 2.0 7.0 0.00 0.00 0.00 84 1016.3
20260507073642 63 53 1.0 6.0 0.00 0.00 0.00 84 1016.6
20260507072712 63 30 4.0 8.0 0.00 0.00 0.00 84 1016.5
20260507072146 63 45 1.0 5.0 0.00 0.00 0.00 84 1016.5
20260507071126 63 66 0.0 6.0 0.00 0.00 0.00 84 1016.4
20260507070615 63 68 3.0 7.0 0.00 0.00 0.00 84 1016.3
20260507070113 63 51 4.0 7.0 0.00 0.00 0.00 84 1016.2
20260507065627 63 356 3.0 7.0 0.00 0.00 0.00 84 1016.4
20260507065141 63 89 4.0 8.0 0.00 0.00 0.00 84 1016.5
20260507064614 63 20 4.0 8.0 0.00 0.00 0.00 84 1016.4
20260507064129 63 27 5.0 7.0 0.00 0.00 0.00 84 1016.4
20260507063642 63 24 3.0 6.0 0.00 0.00 0.00 84 1016.4
20260507063114 63 15 2.0 9.0 0.00 0.00 0.00 84 1016.4
20260507062629 63 61 2.0 10.0 0.00 0.00 0.00 84 1016.4
20260507062122 63 42 4.0 10.0 0.00 0.00 0.00 84 1016.3
20260507061636 63 47 5.0 10.0 0.00 0.00 0.00 84 1016.5
20260507061128 63 29 3.0 8.0 0.00 0.00 0.00 84 1016.6
20260507060623 63 2 3.0 7.0 0.00 0.00 0.00 84 1016.3
20260507060116 63 20 1.0 12.0 0.00 0.00 0.00 84 1016.1
20260507055650 63 346 3.0 12.0 0.00 0.00 0.00 84 1016.0
20260507055119 63 35 5.0 9.0 0.00 0.00 0.00 84 1015.6
20260507054633 63 45 4.0 9.0 0.00 0.00 0.00 84 1015.5
20260507054123 63 10 3.0 10.0 0.00 0.00 0.00 84 1015.8
20260507053638 63 53 5.0 10.0 0.00 0.00 0.00 84 1015.7
20260507053129 64 15 2.0 7.0 0.00 0.00 0.00 84 1015.8
20260507052621 64 24 3.0 7.0 0.00 0.00 0.00 84 1015.5
20260507052115 64 59 3.0 7.0 0.00 0.00 0.00 84 1015.8
20260507051627 64 2 2.0 6.0 0.00 0.00 0.00 84 1015.9
20260507051119 64 24 1.0 6.0 0.00 0.00 0.00 84 1015.7
20260507050614 64 20 2.0 6.0 0.00 0.00 0.00 84 1015.9
20260507050127 64 53 1.0 7.0 0.00 0.00 0.00 84 1016.1
20260507045642 64 24 2.0 7.0 0.00 0.00 0.00 84 1016.1
20260507045154 64 31 3.0 9.0 0.00 0.00 0.00 84 1016.0
20260507044708 64 66 4.0 10.0 0.00 0.00 0.00 84 1015.9
20260507044125 64 24 6.0 11.0 0.00 0.00 0.00 84 1015.7
20260507043644 64 70 2.0 11.0 0.00 0.00 0.00 84 1015.9
20260507043141 64 35 7.0 11.0 0.00 0.00 0.00 84 1015.9
20260507042210 64 15 3.0 10.0 0.00 0.00 0.00 84 1016.1
20260507041623 64 357 3.0 10.0 0.00 0.00 0.00 84 1015.5
20260507041120 64 32 4.0 8.0 0.00 0.00 0.00 84 1015.3
20260507040617 64 5 3.0 12.0 0.00 0.00 0.00 84 1015.4
20260507040152 64 349 5.0 12.0 0.00 0.00 0.00 84 1015.3
20260507035650 64 340 1.0 7.0 0.00 0.00 0.00 84 1015.1
20260507035149 64 61 3.0 11.0 0.00 0.00 0.00 84 1015.3
20260507034647 64 354 4.0 11.0 0.00 0.00 0.00 84 1015.2
20260507033707 64 57 4.0 11.0 0.00 0.00 0.00 84 1015.0
20260507033231 64 10 6.0 11.0 0.00 0.00 0.00 84 1014.9
20260507032707 64 350 5.0 14.0 0.00 0.00 0.00 84 1015.0
20260507032123 64 342 8.0 14.0 0.00 0.00 0.00 84 1015.0
20260507031620 64 352 7.0 11.0 0.00 0.00 0.00 84 1015.0
20260507031226 64 359 7.0 14.0 0.00 0.00 0.00 84 1015.0
20260507030613 64 335 6.0 14.0 0.00 0.00 0.00 84 1015.0
20260507030112 64 359 7.0 14.0 0.00 0.00 0.00 84 1015.0
20260507025626 64 344 5.0 11.0 0.00 0.00 0.00 84 1015.0
20260507025122 64 10 3.0 7.0 0.00 0.00 0.00 84 1015.1
20260507024729 64 344 2.0 9.0 0.00 0.00 0.00 84 1014.9
20260507024205 64 15 6.0 11.0 0.00 0.00 0.00 84 1014.9
20260507023702 65 20 7.0 11.0 0.00 0.00 0.00 84 1014.9
20260507023151 65 337 6.0 14.0 0.00 0.00 0.00 84 1015.1
20260507022649 64 346 7.0 14.0 0.00 0.00 0.00 84 1014.9
20260507022150 64 329 7.0 15.0 0.00 0.00 0.00 84 1014.9
20260507021625 64 315 7.0 15.0 0.00 0.00 0.00 84 1014.4
20260507021127 64 5 8.0 14.0 0.00 0.00 0.00 84 1014.1
20260507020625 64 10 7.0 13.0 0.00 0.00 0.00 84 1014.1
20260507020124 64 357 7.0 12.0 0.00 0.00 0.00 84 1014.5
20260507015638 64 20 6.0 15.0 0.00 0.00 0.00 84 1014.2
20260507015150 64 10 8.0 15.0 0.00 0.00 0.00 84 1014.4
20260507014708 64 348 5.0 13.0 0.00 0.00 0.00 84 1014.4
20260507014114 65 10 3.0 9.0 0.00 0.00 0.00 84 1014.3
20260507013718 65 360 4.0 10.0 0.00 0.00 0.00 84 1014.3
20260507013150 65 10 5.0 10.0 0.00 0.00 0.00 84 1014.3
20260507012650 65 319 5.0 14.0 0.00 0.00 0.00 84 1014.1
20260507012143 65 350 9.0 16.0 0.00 0.00 0.00 84 1014.1
20260507011121 65 10 9.0 14.0 0.00 0.00 0.00 84 1013.8
20260507010639 65 10 8.0 14.0 0.00 0.00 0.00 83 1013.8
20260507010153 65 20 8.0 14.0 0.00 0.00 0.00 83 1013.6
20260507005642 65 30 9.0 14.0 0.00 0.00 0.00 83 1013.7
20260507005121 65 351 7.0 14.0 0.00 0.00 0.00 83 1013.8
20260507004642 65 352 6.0 13.0 0.00 0.00 0.00 83 1013.8
20260507004124 65 15 7.0 13.0 0.00 0.00 0.00 83 1013.6
20260507003628 65 26 7.0 13.0 0.00 0.00 0.00 82 1013.6
20260507003209 66 357 8.0 15.0 0.00 0.00 0.00 82 1013.5
20260507002726 66 10 8.0 15.0 0.00 0.00 0.00 82 1013.2
20260507002147 66 341 9.0 15.0 0.00 0.00 0.00 82 1013.1
20260507001646 66 15 7.0 19.0 0.00 0.00 0.00 82 1013.3
20260507001144 66 20 8.0 19.0 0.00 0.00 0.00 82 1013.1
20260507000638 66 339 11.0 18.0 0.00 0.00 0.00 81 1013.0
20260507000119 66 340 10.0 16.0 0.00 0.00 0.00 81 1013.1
20260506235709 66 327 10.0 16.0 0.00 0.00 0.00 81 1013.1
20260506235218 66 3 9.0 16.0 0.00 0.00 0.00 81 1012.8
20260506234628 66 15 9.0 15.0 0.00 0.00 0.00 81 1012.9
20260506234127 67 342 8.0 14.0 0.00 0.00 0.00 81 1012.7
20260506233631 67 334 9.0 15.0 0.00 0.00 0.00 81 1012.7
20260506233143 67 327 10.0 15.0 0.00 0.00 0.00 81 1012.9
20260506232210 67 359 8.0 15.0 0.00 0.00 0.00 80 1012.9
20260506231706 67 2 9.0 14.0 0.00 0.00 0.00 80 1012.8
20260506231119 68 26 7.0 14.0 0.00 0.00 0.00 80 1012.6
20260506230621 68 357 10.0 16.0 0.00 0.00 0.00 79 1012.7
20260506230121 68 34 9.0 20.0 0.00 0.00 0.00 79 1012.6
20260506225725 69 351 11.0 21.0 0.00 0.00 0.00 79 1012.6
20260506225204 69 330 13.0 21.0 0.00 0.00 0.00 78 1012.5
20260506224700 69 351 8.0 21.0 0.00 0.00 0.00 79 1012.5
20260506224136 69 351 14.0 21.0 0.00 0.00 0.00 78 1012.6
20260506223126 71 338 11.0 19.0 0.00 0.00 0.00 77 1012.3
20260506222627 71 339 12.0 19.0 0.00 0.00 0.00 78 1012.1
20260506222125 71 6 11.0 19.0 0.00 0.00 0.00 78 1012.3
20260506221630 71 340 10.0 19.0 0.00 0.00 0.00 77 1012.2
20260506221137 71 335 10.0 18.0 0.00 0.00 0.00 77 1012.2
20260506220637 71 353 7.0 21.0 0.00 0.00 0.00 78 1011.9
20260506220117 72 335 12.0 21.0 0.00 0.00 0.00 77 1012.1
20260506215614 72 10 9.0 18.0 0.00 0.00 0.00 78 1012.2
20260506215209 72 10 10.0 19.0 0.00 0.00 0.00 78 1012.2
20260506214707 73 5 12.0 19.0 0.00 0.00 0.00 77 1012.3
20260506214206 73 31 9.0 16.0 0.00 0.00 0.00 78 1012.2
20260506213615 73 317 8.0 16.0 0.00 0.00 0.00 78 1012.0
20260506213115 73 15 8.0 16.0 0.00 0.00 0.00 78 1011.8
20260506212716 74 350 11.0 20.0 0.00 0.00 0.00 78 1011.8
20260506212152 74 1 8.0 20.0 0.00 0.00 0.00 78 1011.8
20260506211700 74 15 9.0 16.0 0.00 0.00 0.00 77 1011.9
20260506210710 75 47 10.0 20.0 0.00 0.00 0.00 78 1011.9
20260506210144 75 359 10.0 18.0 0.00 0.00 0.00 78 1011.8
20260506205641 76 357 7.0 15.0 0.00 0.00 0.00 80 1011.8
20260506205136 75 355 8.0 18.0 0.00 0.00 0.00 79 1011.8
20260506204653 75 34 9.0 18.0 0.00 0.00 0.00 79 1011.8
20260506204149 76 350 8.0 19.0 0.00 0.00 0.00 80 1011.8
20260506203707 75 20 10.0 19.0 0.00 0.00 0.00 80 1011.6
20260506203118 74 344 10.0 18.0 0.00 0.00 0.00 81 1011.9
20260506202638 74 39 11.0 18.0 0.00 0.00 0.00 81 1011.9
20260506202134 74 37 12.0 18.0 0.00 0.00 0.00 81 1011.9
20260506201650 74 340 11.0 20.0 0.00 0.00 0.00 81 1012.0
20260506201143 75 35 12.0 21.0 0.00 0.00 0.00 80 1012.0
20260506200643 76 352 14.0 25.0 0.00 0.00 0.00 78 1012.0
20260506200142 80 355 10.0 25.0 0.00 0.00 0.00 82 1012.0
20260506195639 80 25 4.0 11.0 0.00 0.00 0.00 82 1011.7
20260506195135 80 353 4.0 9.0 0.00 0.00 0.00 83 1011.5
20260506194633 80 28 7.0 15.0 0.00 0.00 0.00 83 1011.4
20260506194217 80 97 7.0 15.0 0.00 0.00 0.00 83 1011.3
20260506193710 80 124 1.0 4.0 0.00 0.00 0.00 84 1011.4
20260506193121 79 10 1.0 4.0 0.00 0.00 0.00 85 1011.4
20260506192626 79 174 0.0 2.0 0.00 0.00 0.00 86 1011.5
20260506192206 79 174 0.0 2.0 0.00 0.00 0.00 85 1011.4
20260506191150 78 154 1.0 6.0 0.00 0.00 0.00 86 1011.6
20260506190150 77 236 1.0 3.0 0.00 0.00 0.00 87 1011.8
20260506185645 77 236 0.0 0.0 0.00 0.00 0.00 87 1011.8
20260506185228 76 236 0.0 0.0 0.00 0.00 0.00 87 1011.7
20260506184704 76 236 0.0 2.0 0.00 0.00 0.00 88 1011.7
20260506184113 76 236 1.0 5.0 0.00 0.00 0.00 87 1011.8
20260506183715 76 236 3.0 5.0 0.00 0.00 0.00 87 1012.0
20260506183153 75 237 5.0 6.0 0.00 0.00 0.00 87 1012.2
20260506182651 75 237 5.0 6.0 0.00 0.00 0.00 87 1012.1
20260506182144 75 236 5.0 7.0 0.00 0.00 0.00 87 1012.1
20260506181647 74 253 6.0 9.0 0.00 0.00 0.00 87 1012.1
20260506181141 75 254 7.0 9.0 0.00 0.00 0.00 87 1012.2
20260506180200 74 240 6.0 7.0 0.00 0.00 0.00 88 1012.2
20260506175700 74 221 6.0 7.0 0.00 0.00 0.00 87 1012.2
20260506175212 74 227 1.0 5.0 0.00 0.00 0.00 87 1012.2
20260506174707 74 269 3.0 6.0 0.00 0.00 0.00 87 1012.4
20260506174142 74 216 5.0 6.0 0.00 0.00 0.00 87 1012.4
20260506173645 74 178 0.0 6.0 0.00 0.00 0.00 88 1012.2
20260506173145 73 47 1.0 7.0 0.00 0.00 0.00 88 1012.4
20260506172645 73 47 5.0 9.0 0.00 0.00 0.00 87 1012.8
20260506172144 73 56 5.0 10.0 0.00 0.00 0.00 87 1012.7
20260506171619 72 41 7.0 12.0 0.00 0.00 0.00 87 1012.8
20260506171121 73 347 6.0 10.0 0.00 0.00 0.00 87 1012.6
20260506170642 73 39 5.0 12.0 0.00 0.00 0.00 87 1012.7
20260506170139 73 15 8.0 16.0 0.00 0.00 0.00 86 1012.8
20260506165635 74 360 11.0 16.0 0.00 0.00 0.00 85 1012.9
20260506165150 77 10 6.0 13.0 0.00 0.00 0.00 88 1012.9
20260506164646 77 74 2.0 6.0 0.00 0.00 0.00 88 1012.8
20260506164144 77 88 2.0 8.0 0.00 0.00 0.00 88 1012.8
20260506163638 77 93 5.0 8.0 0.00 0.00 0.00 88 1012.9
20260506162709 77 111 7.0 10.0 0.00 0.00 0.00 89 1012.8
20260506162159 77 115 6.0 9.0 0.00 0.00 0.00 89 1012.8
20260506161639 76 70 6.0 9.0 0.00 0.00 0.00 89 1012.8
20260506161143 76 104 5.0 7.0 0.00 0.00 0.00 89 1012.8
20260506160622 76 86 4.0 6.0 0.00 0.00 0.00 89 1012.8
20260506160223 76 107 1.0 6.0 0.00 0.00 0.00 89 1012.9
20260506155123 76 111 4.0 5.0 0.00 0.00 0.00 90 1012.8
20260506154623 76 111 0.0 4.0 0.00 0.00 0.00 90 1012.7
20260506154122 75 111 1.0 5.0 0.00 0.00 0.00 90 1012.6
20260506153628 75 111 3.0 5.0 0.00 0.00 0.00 90 1012.6
20260506153232 75 118 2.0 6.0 0.00 0.00 0.00 90 1012.4
20260506152650 75 119 3.0 6.0 0.00 0.00 0.00 90 1012.4
20260506152145 75 124 0.0 7.0 0.00 0.00 0.00 90 1012.1
20260506151210 75 126 5.0 7.0 0.00 0.00 0.00 90 1011.9
20260506150626 75 115 2.0 5.0 0.00 0.00 0.00 90 1011.7
20260506150142 75 104 3.0 7.0 0.00 0.00 0.00 90 1011.9
20260506145733 75 123 4.0 7.0 0.00 0.00 0.00 90 1011.9
20260506145204 75 122 1.0 4.0 0.00 0.00 0.00 90 1011.9
20260506144638 75 122 0.0 1.0 0.00 0.00 0.00 90 1011.7
20260506144135 75 122 0.0 1.0 0.00 0.00 0.00 90 1011.8
20260506143616 75 122 0.0 1.0 0.00 0.00 0.00 90 1011.8
20260506143152 75 122 0.0 2.0 0.00 0.00 0.00 90 1011.7
20260506142650 75 122 1.0 2.0 0.00 0.00 0.00 90 1011.7
20260506142146 75 122 1.0 2.0 0.00 0.00 0.00 90 1011.8
20260506141640 75 137 1.0 2.0 0.00 0.00 0.00 90 1011.8
20260506141142 75 149 0.0 4.0 0.00 0.00 0.00 90 1011.6
20260506140700 75 149 1.0 5.0 0.00 0.00 0.00 90 1011.5
20260506140159 75 151 1.0 6.0 0.00 0.00 0.00 90 1011.3
20260506135651 75 151 5.0 7.0 0.00 0.00 0.00 90 1011.0
20260506135203 75 150 5.0 9.0 0.00 0.00 0.00 90 1010.7
20260506134654 75 146 7.0 9.0 0.00 0.00 0.00 90 1010.9
20260506134129 75 130 7.0 9.0 0.00 0.00 0.00 90 1010.7
20260506133628 75 147 7.0 8.0 0.00 0.00 0.00 90 1010.6
20260506133126 75 132 6.0 8.0 0.00 0.00 0.00 90 1010.6